Location: Étang Rond
(42.7927°N, 1.0661°E)
Time: 02:00:44
(UTC+00:00)

Cosmos 44 Rocket - Pass Details

Date: 08 November 2025
Orbit: 637 x 741 km, 65.1° (Epoch: 07 December)

Event Time Altitude Azimuth Distance (km) Brightness Sun altitude
Exits shadow 05:43:38 11° 306° (NW) 2,144 5.2 -10.5°
Maximum altitude 05:47:50 31° 247° (WSW) 1,269 4.2 -9.7°
Drops below altitude 10° 05:52:20 10° 186° (S) 2,242 6.0 -8.9°
Sets 05:54:55 0° 176° (S) 3,160 7.0 -8.5°
